Location: Ostrava
(49.8330°N, 18.2830°E)
Time: 19:15:21
(UTC+02:00)

Cosmos 2219 Rocket - Visible Passes

Search period start: 27 September 2016 00:00
Search period end: 07 October 2016 00:00
Orbit: 827 x 848 km, 71.0° (Epoch: 26 September)

Date Brightness Start Highest point End Pass type
(mag) Time Alt. Az. Time Alt. Az. Time Alt. Az.
27 Sep 4.5 01:35:30 10° N 01:39:35 20° NE 01:41:53 16° ENE visible
27 Sep 2.6 03:18:51 10° NNW 03:32:23 - SSE 03:23:21 55° N visible
27 Sep 4.0 05:03:46 10° NW 05:14:28 - SSW 05:04:50 14° WNW visible
27 Sep 4.1 19:58:42 10° WSW 20:03:35 29° NW 20:08:31 10° NNE visible
27 Sep 5.1 21:48:21 10° NNW 21:49:37 11° NNW 21:50:52 10° N visible
28 Sep 4.5 01:19:12 10° N 01:23:10 19° NE 01:23:34 19° NE visible
28 Sep 3.7 03:02:30 10° NNW 03:05:10 28° NNW 03:05:10 28° NNW visible
28 Sep 4.1 19:42:13 10° WSW 19:47:12 31° NW 19:52:13 10° NNE visible
28 Sep 5.1 21:31:37 10° NW 21:33:09 11° NNW 21:34:42 10° N visible
29 Sep 4.6 01:02:54 10° N 01:06:16 18° NNE 01:06:16 18° NNE visible
29 Sep 4.2 02:46:10 10° NNW 02:47:54 20° NNW 02:47:54 20° NNW visible
29 Sep 4.0 19:25:46 10° WSW 19:30:49 32° NW 19:35:54 10° NNE visible
29 Sep 5.0 21:14:55 10° NW 21:16:43 11° NNW 21:18:30 10° N visible
30 Sep 4.7 00:46:37 10° N 00:49:20 17° NNE 00:49:20 17° NNE visible
30 Sep 4.4 02:29:51 10° NNW 02:31:00 16° NNW 02:31:00 16° NNW visible
30 Sep 3.9 19:09:19 10° WSW 19:14:26 34° NW 19:19:36 10° NNE visible
30 Sep 5.0 20:58:16 10° NW 21:00:16 12° NNW 21:02:16 10° N visible
01 Oct 4.7 00:30:19 10° N 00:32:39 16° NNE 00:32:39 16° NNE visible
01 Oct 4.6 02:13:31 10° NNW 02:14:19 14° NNW 02:14:19 14° NNW visible
01 Oct 3.8 18:52:52 10° WSW 18:58:03 36° NW 19:03:17 10° NNE visible
01 Oct 4.9 20:41:37 10° NW 20:43:49 12° NNW 20:46:02 10° N visible
02 Oct 4.8 00:14:02 10° N 00:16:05 15° NNE 00:16:05 15° NNE visible
02 Oct 4.8 01:57:12 10° NNW 01:57:45 13° NNW 01:57:45 13° NNW visible
02 Oct 4.9 20:24:59 10° NW 20:27:23 13° NNW 20:29:48 10° N visible
02 Oct 4.8 23:57:44 10° N 23:59:36 14° NNE 23:59:36 14° NNE visible
03 Oct 4.9 01:40:51 10° NNW 01:41:17 12° NNW 01:41:17 12° NNW visible
03 Oct 4.8 20:08:22 10° NW 20:10:57 13° NNW 20:13:32 10° N visible
03 Oct 4.8 23:41:29 10° N 23:43:12 14° NNE 23:43:12 14° NNE visible
04 Oct 4.9 01:24:32 10° NNW 01:24:53 12° NNW 01:24:53 12° NNW visible
04 Oct 4.8 19:51:46 10° WNW 19:54:31 14° NNW 19:57:17 10° N visible
04 Oct 4.8 23:25:12 10° N 23:26:50 13° NNE 23:26:50 13° NNE visible
05 Oct 5.0 01:08:13 10° NNW 01:08:32 12° NNW 01:08:32 12° NNW visible
05 Oct 4.7 19:35:10 10° WNW 19:38:05 14° NNW 19:41:01 10° N visible
05 Oct 4.8 23:08:55 10° N 23:10:32 13° NNE 23:10:32 13° NNE visible
06 Oct 5.0 00:51:53 10° NNW 00:52:12 11° NNW 00:52:12 11° NNW visible
06 Oct 4.7 19:18:35 10° WNW 19:21:39 15° NNW 19:24:44 10° N visible
06 Oct 4.8 22:52:39 10° N 22:54:15 13° NNE 22:54:15 13° NNE visible
